Location: Asheville, NC
(35.6000°N, 82.5500°W)
Time: 03:10:34
(UTC-04:00)

Vanguard 1 Rocket - Pass Details

Date: 25 January 2018
Orbit: 652 x 4225 km, 34.3° (Epoch: 24 May)

Event Time Altitude Azimuth Distance (km) Brightness Sun altitude
Exits shadow 05:05:36 11° 227° (SW) 6,726 11.4 -30.3°
Maximum altitude 05:24:37 55° 158° (SSE) 2,836 9.9 -26.4°
Drops below altitude 10° 05:34:56 10° 84° (E) 3,833 11.6 -24.3°
Sets 05:37:25 0° 79° (E) 4,493 12.2 -23.8°
